{"data":{"norad_id":62327,"epoch":"2026-05-25T03:50:27.150144Z","epoch_age_seconds":57307,"freshness":"FRESH","line1":"1 62327U 24240E   26145.16003646  .00000030  00000+0  35144-4 0  9999","line2":"2 62327  86.5045 351.2150 0001357  90.2512 269.8778 13.24408514 69590","mean_motion":13.24408514,"eccentricity":0.0001357,"inclination_deg":86.5045,"raan_deg":351.215,"arg_perigee_deg":90.2512,"mean_anomaly_deg":269.8778,"bstar":3.5144e-5,"rev_number":6959,"period_min":108.72778185719,"perigee_km":1166.9038291324,"apogee_km":1168.9518311273,"semimajor_km":7546.0648301298,"source":"CELESTRAK","updated_at":"2026-05-25T13:38:02.937264Z"}}